Location: Baia Mare
(47.6567°N, 23.5850°E)
Time: 13:25:20
(UTC+02:00)

ISS - Pass Details

Date: 02 December 2018
Orbit: 401 x 408 km, 51.6° (Epoch: 16 December)

Event Time Altitude Azimuth Distance (km) Brightness Sun altitude
Rises 19:00:02 0° 282° (WNW) 2,317 1.2 -23.5°
Reaches altitude 10° 19:02:12 10° 291° (WNW) 1,457 -0.2 -23.9°
Enters shadow 19:03:56 25° 311° (NW) 850 -1.8 -24.1°
